This is the latest recevied weather packets stored in our database for station/object DL1NUX-15. If no packets are shown the sender has not sent any weather packets the latest 10 day(s).
| Time | Temp. | Humidity | Pressure | Rain* | Wind** | Luminosity | Snow |
|---|---|---|---|---|---|---|---|
| 1777512934 | 3.89° C | 51% | 1030.8 hPa | 0 mm | - | 0 W/m² | - |
| 1777511136 | 3.89° C | 50% | 1030.7 hPa | 0 mm | - | 0 W/m² | - |
| 1777510536 | 4.44° C | 50% | 1030.7 hPa | 0 mm | - | 0 W/m² | - |
| 1777509336 | 4.44° C | 49% | 1030.6 hPa | 0 mm | - | 0 W/m² | - |
| 1777508137 | 5° C | 49% | 1030.7 hPa | 0 mm | - | 0 W/m² | - |
| 1777506338 | 5° C | 49% | 1030.8 hPa | 0 mm | - | 0 W/m² | - |
| 1777505739 | 5° C | 48% | 1030.7 hPa | 0 mm | - | 0 W/m² | - |
| 1777504539 | 5.56° C | 48% | 1030.7 hPa | 0 mm | - | 0 W/m² | - |
| 1777503340 | 5.56° C | 47% | 1030.5 hPa | 0 mm | - | 0 W/m² | - |
| 1777502741 | 6.11° C | 47% | 1030.4 hPa | 0 mm | - | 0 W/m² | - |
| 1777500942 | 6.11° C | 46% | 1030 hPa | 0 mm | - | 0 W/m² | - |
| 1777500343 | 6.67° C | 46% | 1029.9 hPa | 0 mm | - | 0 W/m² | - |
| 1777497345 | 7.22° C | 44% | 1029.6 hPa | 0 mm | - | 0 W/m² | - |
| 1777494946 | 7.78° C | 43% | 1029.1 hPa | 0 mm | - | 0 W/m² | - |
| 1777490149 | 8.89° C | 39% | 1028.5 hPa | 0 mm | - | 0 W/m² | - |
| 1777488950 | 8.89° C | 39% | 1028.2 hPa | 0 mm | - | 0 W/m² | - |
| 1777487151 | 10° C | 37% | 1027.7 hPa | 0 mm | - | 4 W/m² | - |
| 1777486553 | 10° C | 37% | 1027.4 hPa | 0 mm | - | 8 W/m² | - |
| 1777485952 | 10° C | 37% | 1027.5 hPa | 0 mm | - | 13 W/m² | - |
| 1777485353 | 10.56° C | 36% | 1027.3 hPa | 0 mm | - | 17 W/m² | - |
| 1777484754 | 10.56° C | 36% | 1027.4 hPa | 0 mm | - | 26 W/m² | - |
| 1777483554 | 11.67° C | 36% | 1027 hPa | 0 mm | - | 43 W/m² | - |
| 1777482355 | 12.22° C | 35% | 1026.7 hPa | 0 mm | - | 70 W/m² | - |
| 1777481156 | 12.22° C | 34% | 1026.6 hPa | 0 mm | - | 109 W/m² | - |
| 1777480556 | 12.78° C | 34% | 1026.6 hPa | 0 mm | - | 128 W/m² | - |
* Rain latest hour (hover to see other rain measurements)
** Current wind speed in m/s (hover to see current wind gust speed)